| time (UTC) | temp F | wind direction | speed knots | gust knots | rain 1hr in | rain 24hr in | rain mn in | humidity % | barometer mb |
| 20260506203001 | 55 | 34 | 0.9 | 3.5 | 0.00 | 0.00 | 0.00 | 60 | 1011.7 |
| 20260506201502 | 56 | 35 | 0.0 | 4.3 | 0.00 | 0.00 | 0.00 | 58 | 1011.7 |
| 20260506200113 | 57 | 34 | 1.7 | 3.5 | 0.00 | 0.00 | 0.00 | 57 | 1011.6 |
| 20260506194622 | 58 | 34 | 1.7 | 3.5 | 0.00 | 0.00 | 0.00 | 56 | 1011.5 |
| 20260506193100 | 59 | 34 | 0.9 | 4.3 | 0.00 | 0.00 | 0.00 | 52 | 1011.4 |
| 20260506191559 | 60 | 34 | 2.6 | 5.2 | 0.00 | 0.00 | 0.00 | 46 | 1011.3 |
| 20260506190100 | 61 | 30 | 1.7 | 4.3 | 0.00 | 0.00 | 0.00 | 41 | 1011.3 |
| 20260506184610 | 61 | 28 | 1.7 | 4.3 | 0.00 | 0.00 | 0.00 | 40 | 1011.3 |
| 20260506183104 | 62 | 30 | 1.7 | 4.3 | 0.00 | 0.00 | 0.00 | 39 | 1011.2 |
| 20260506181600 | 63 | 29 | 1.7 | 4.3 | 0.00 | 0.00 | 0.00 | 39 | 1011.3 |
| 20260506180055 | 63 | 198 | 0.9 | 2.6 | 0.00 | 0.00 | 0.00 | 39 | 1011.4 |
| 20260506174554 | 63 | 198 | 0.0 | 3.5 | 0.00 | 0.00 | 0.00 | 39 | 1011.5 |
| 20260506173056 | 62 | 198 | 0.9 | 3.5 | 0.00 | 0.00 | 0.00 | 42 | 1011.6 |
| 20260506171551 | 61 | 197 | 2.6 | 5.2 | 0.00 | 0.00 | 0.00 | 43 | 1011.8 |
| 20260506170050 | 61 | 202 | 2.6 | 4.3 | 0.00 | 0.00 | 0.00 | 44 | 1011.8 |
| 20260506164552 | 61 | 223 | 1.7 | 6.1 | 0.00 | 0.00 | 0.00 | 44 | 1011.8 |
| 20260506163052 | 61 | 161 | 2.6 | 5.2 | 0.00 | 0.00 | 0.00 | 43 | 1011.9 |
| 20260506161556 | 62 | 159 | 1.7 | 6.1 | 0.00 | 0.00 | 0.00 | 44 | 1012.0 |
| 20260506160048 | 62 | 168 | 2.6 | 7.8 | 0.00 | 0.00 | 0.00 | 43 | 1012.0 |
| 20260506154547 | 64 | 198 | 3.5 | 6.1 | 0.00 | 0.00 | 0.00 | 40 | 1012.1 |
| 20260506153045 | 66 | 84 | 2.6 | 5.2 | 0.00 | 0.00 | 0.00 | 38 | 1012.1 |
| 20260506151600 | 65 | 159 | 1.7 | 5.2 | 0.00 | 0.00 | 0.00 | 40 | 1012.2 |
| 20260506150041 | 63 | 134 | 1.7 | 4.3 | 0.00 | 0.00 | 0.00 | 42 | 1012.4 |
| 20260506144539 | 63 | 40 | 1.7 | 7.0 | 0.00 | 0.00 | 0.00 | 43 | 1012.4 |
| 20260506143046 | 64 | 71 | 1.7 | 5.2 | 0.00 | 0.00 | 0.00 | 42 | 1012.7 |
| 20260506141535 | 64 | 183 | 0.9 | 4.3 | 0.00 | 0.00 | 0.00 | 43 | 1012.9 |
| 20260506140037 | 63 | 215 | 4.3 | 7.8 | 0.00 | 0.00 | 0.00 | 44 | 1013.1 |
| 20260506134531 | 63 | 201 | 0.9 | 7.0 | 0.00 | 0.00 | 0.00 | 45 | 1013.2 |
| 20260506133026 | 61 | 23 | 1.7 | 5.2 | 0.00 | 0.00 | 0.00 | 46 | 1013.4 |
| 20260506131529 | 61 | 55 | 0.9 | 6.1 | 0.00 | 0.00 | 0.00 | 47 | 1013.4 |
| 20260506130025 | 61 | 81 | 3.5 | 7.0 | 0.00 | 0.00 | 0.00 | 47 | 1013.6 |
| 20260506124524 | 61 | 36 | 2.6 | 5.2 | 0.00 | 0.00 | 0.00 | 47 | 1013.6 |
| 20260506123020 | 60 | 200 | 0.9 | 6.1 | 0.00 | 0.00 | 0.00 | 47 | 1013.7 |
| 20260506121517 | 59 | 254 | 1.7 | 7.8 | 0.00 | 0.00 | 0.00 | 48 | 1013.8 |
| 20260506120015 | 58 | 198 | 5.2 | 7.8 | 0.00 | 0.00 | 0.00 | 52 | 1013.9 |
| 20260506114515 | 57 | 265 | 1.7 | 5.2 | 0.00 | 0.00 | 0.00 | 54 | 1014.0 |
| 20260506113012 | 57 | 15 | 2.6 | 5.2 | 0.00 | 0.00 | 0.00 | 55 | 1014.2 |
| 20260506111509 | 56 | 200 | 0.0 | 8.7 | 0.00 | 0.00 | 0.00 | 59 | 1014.3 |
| 20260506110007 | 57 | 239 | 0.9 | 7.0 | 0.00 | 0.00 | 0.00 | 59 | 1014.4 |
| 20260506104503 | 56 | 139 | 2.6 | 7.8 | 0.00 | 0.00 | 0.00 | 60 | 1014.4 |
| 20260506103003 | 56 | 314 | 0.9 | 4.3 | 0.00 | 0.00 | 0.00 | 61 | 1014.5 |
| 20260506101604 | 55 | 161 | 2.6 | 7.0 | 0.00 | 0.00 | 0.00 | 64 | 1014.6 |
| 20260506100053 | 53 | 59 | 1.7 | 5.2 | 0.00 | 0.00 | 0.00 | 72 | 1014.7 |
| 20260506094556 | 52 | 183 | 2.6 | 7.0 | 0.00 | 0.00 | 0.00 | 77 | 1014.8 |
| 20260506093050 | 51 | 171 | 0.9 | 4.3 | 0.00 | 0.00 | 0.00 | 82 | 1014.9 |
| 20260506091542 | 49 | 167 | 2.6 | 5.2 | 0.00 | 0.00 | 0.00 | 87 | 1014.9 |
| 20260506090039 | 47 | 148 | 0.0 | 5.2 | 0.00 | 0.00 | 0.00 | 91 | 1014.9 |
| 20260506084538 | 46 | 145 | 3.5 | 6.1 | 0.00 | 0.00 | 0.00 | 92 | 1014.9 |
| 20260506083037 | 45 | 127 | 2.6 | 4.3 | 0.00 | 0.00 | 0.00 | 93 | 1014.8 |
| 20260506081536 | 43 | 123 | 0.9 | 3.5 | 0.00 | 0.00 | 0.00 | 93 | 1014.8 |
| 20260506073041 | 41 | 122 | 0.0 | 1.7 | 0.00 | 0.00 | 0.00 | 93 | 1014.8 |
| 20260506071534 | 41 | 128 | 0.0 | 2.6 | 0.00 | 0.00 | 0.00 | 93 | 1014.8 |
| 20260506061531 | 39 | 131 | 0.9 | 4.3 | 0.00 | 0.00 | 0.00 | 92 | 1014.6 |
| 20260506044526 | 39 | 131 | 0.0 | 2.6 | 0.00 | 0.00 | 0.00 | 91 | 1014.1 |
| 20260506043026 | 39 | 131 | 0.0 | 2.6 | 0.00 | 0.00 | 0.00 | 90 | 1014.2 |
| 20260506041530 | 39 | 131 | 0.9 | 6.1 | 0.00 | 0.00 | 0.00 | 90 | 1014.1 |
| 20260506040025 | 40 | 112 | 3.5 | 5.2 | 0.00 | 0.00 | 0.00 | 90 | 1014.2 |
| 20260506034519 | 40 | 102 | 0.0 | 2.6 | 0.00 | 0.00 | 0.00 | 89 | 1014.0 |
| 20260506033017 | 41 | 102 | 1.7 | 3.5 | 0.00 | 0.00 | 0.00 | 89 | 1014.2 |
| 20260506031522 | 41 | 101 | 1.7 | 2.6 | 0.00 | 0.00 | 0.00 | 89 | 1014.3 |
| 20260506030013 | 41 | 101 | 0.9 | 2.6 | 0.00 | 0.00 | 0.00 | 89 | 1014.2 |
| 20260506024512 | 41 | 101 | 0.0 | 0.0 | 0.00 | 0.00 | 0.00 | 89 | 1014.1 |
| 20260506023012 | 41 | 101 | 0.0 | 0.0 | 0.00 | 0.00 | 0.00 | 88 | 1014.1 |
| 20260506021510 | 42 | 101 | 0.0 | 2.6 | 0.00 | 0.00 | 0.00 | 88 | 1014.0 |
| 20260506020008 | 43 | 101 | 0.0 | 2.6 | 0.00 | 0.00 | 0.00 | 89 | 1014.0 |
| 20260506014509 | 43 | 101 | 0.0 | 0.0 | 0.00 | 0.00 | 0.00 | 89 | 1014.0 |
| 20260506013012 | 43 | 101 | 0.0 | 0.9 | 0.00 | 0.00 | 0.00 | 88 | 1014.0 |
| 20260506011503 | 43 | 101 | 0.0 | 2.6 | 0.00 | 0.00 | 0.00 | 88 | 1014.1 |
| 20260506010003 | 43 | 101 | 0.9 | 1.7 | 0.00 | 0.00 | 0.00 | 88 | 1014.1 |
| 20260506004600 | 44 | 101 | 0.9 | 2.6 | 0.00 | 0.00 | 0.00 | 87 | 1014.2 |
| 20260506003059 | 44 | 100 | 0.9 | 5.2 | 0.00 | 0.00 | 0.00 | 87 | 1014.3 |
| 20260506001617 | 44 | 76 | 0.0 | 0.0 | 0.00 | 0.00 | 0.00 | 86 | 1014.3 |
| 20260506000054 | 44 | 76 | 0.0 | 1.7 | 0.00 | 0.00 | 0.00 | 85 | 1014.4 |
| 20260505234553 | 45 | 76 | 0.0 | 4.3 | 0.00 | 0.00 | 0.00 | 85 | 1014.5 |
| 20260505233056 | 45 | 105 | 0.9 | 2.6 | 0.00 | 0.00 | 0.00 | 86 | 1014.5 |
| 20260505231554 | 45 | 105 | 0.0 | 2.6 | 0.00 | 0.00 | 0.00 | 85 | 1014.6 |
| 20260505230047 | 46 | 105 | 0.0 | 5.2 | 0.00 | 0.00 | 0.00 | 85 | 1014.6 |
| 20260505224547 | 46 | 105 | 1.7 | 3.5 | 0.00 | 0.00 | 0.00 | 84 | 1014.7 |
| 20260505223049 | 46 | 93 | 0.9 | 3.5 | 0.00 | 0.00 | 0.00 | 83 | 1014.8 |
| 20260505221547 | 47 | 360 | 0.0 | 0.0 | 0.00 | 0.00 | 0.00 | 82 | 1014.7 |
| 20260505220042 | 47 | 360 | 0.0 | 0.0 | 0.00 | 0.01 | 0.00 | 82 | 1014.8 |
| 20260505214555 | 47 | 360 | 0.0 | 0.0 | 0.00 | 0.01 | 0.00 | 81 | 1014.7 |
| 20260505213052 | 48 | 360 | 0.0 | 0.9 | 0.00 | 0.01 | 0.00 | 81 | 1014.7 |
| 20260505211537 | 48 | 360 | 0.0 | 0.0 | 0.00 | 0.01 | 0.00 | 81 | 1014.7 |
| 20260505210036 | 48 | 360 | 0.0 | 3.5 | 0.00 | 0.01 | 0.00 | 80 | 1014.7 |
| 20260505204625 | 49 | 360 | 0.9 | 4.3 | 0.00 | 0.01 | 0.00 | 78 | 1014.6 |